Regional Weather Roundup
Issued by NWS New Orleans/Baton Rouge, LA

Home | Current Version | Previous Version | Text Only | Print | Product List | Glossary On
Versions: 1 2 3 4 5 6 7 8 9 10 11 12 13 14 15 16 17 18 19 20 21 22 23 24 25 26 27 28 29 30 31 32 33 34 35 36 37 38 39 40 41 42 43 44 45 46 47 48 49 50
000
ASUS44 KLIX 051511
RWRLIX
NEW ORLEANS REGIONAL WEATHER ROUNDUP
NATIONAL WEATHER SERVICE NEW ORLEANS LA
1000 AM CDT TUE MAY 05 2015

NOTE: "FAIR" INDICATES FEW OR NO CLOUDS BELOW 12,000 FEET WITH NO
      SIGNIFICANT WEATHER AND/OR OBSTRUCTIONS TO VISIBILITY.
      SKY/WX - SKY CONDITION AND SIGNIFICANT WEATHER.
      TMP - AIR TEMPERATURE.     DP    - DEWPOINT TEMPERATURE.
      RH  - RELATIVE HUMIDITY.   PRES  - PRESSURE.
      HI  - HEAT INDEX.          WCI   - WIND CHILL INDEX.

*  THESE STATIONS ARE NOT NWS OR FAA STATIONS AND ARE NOT UNDER
   NWS QUALITY CONTROL.

LAZ038-040-048-061>063-065>067-069-051600-
SOUTHEAST LOUISIANA

CITY           SKY/WX    TMP DP  RH WIND       PRES   REMARKS
N.O. AUDUBON     N/A     81  64  57 MISG        N/A
N.O. INTL ARPT MOSUNNY   79  61  53 SE17G24   30.17S
N.O. LAKEFRONT PTSUNNY   79  65  62 E18       30.18R
SLIDELL        PTSUNNY   77  68  73 E10G18    30.19R
BATON ROUGE    MOSUNNY   77  64  64 E9        30.18R
BOOTHVILLE     MOSUNNY   78  67  68 E13       30.18S
BELLE CHASSE   MOSUNNY   78  63  59 E16       30.17R
BOGALUSA*        N/A     78  63  60 E9        30.22R
GALLIANO*      MOSUNNY   80  66  62 MISG      30.17R
NEW ROADS*       N/A     76  63  63 E15       30.17S
GONZALES*        N/A     78  63  60 SE7G17    30.16S
HAMMOND*       MOSUNNY   77  63  61 SE8       30.21R
HOUMA*         MOSUNNY   79  64  61 SE17G23   30.16R
PORT FOURCHON*   N/A     79  68  69 E12G20    30.19R

$$

MSZ070-080>082-051600-
SOUTHERN MISSISSIPPI

CITY           SKY/WX    TMP DP  RH WIND       PRES   REMARKS
MCCOMB         SUNNY     76  63  64 SE14      30.21R
GULFPORT       SUNNY     78  61  55 E15       30.20R
BILOXI         NOT AVBL
PASCAGOULA     SUNNY     77  61  57 E12       30.21S
STENNIS ARPT*  MOSUNNY   75  61  60 MISG      30.20R

$$

COASTAL OBSERVATIONS
LAKE AND NEARSHORE STATIONS

STATION/POSITION TIME  TEMP    WIND        PRES    WAVE
                       AIR SEA DIR/SP/G            HT/PER
                 (UTC) (F)     (DEG/KT/KT) (MB)    (FT/S)
PASCAGOULA       1400   75      70/ 11/ 18 1022.2
WAVELAND YACHT   1400   73 74  110/ 15/ 17 1022.4
GRAND ISLE       1400   76 76  100/ 11/ 16 1021.0
SOUTHWEST PASS   1400   76 67  100/ 20/ 22 1021.4
NEW CANAL        1406   77 75  120/  2/  9 1022.1
SHELL BEACH      1400   76 74  110/ 19/ 22 1021.2

OFFSHORE STATIONS

STATION/POSITION TIME  TEMP    WIND        PRES    WAVE
                       AIR SEA DIR/SP/G            HT/PER
                 (UTC) (F)     (DEG/KT/KT) (MB)    (FT/S)
64 S DAUPHIN ISL 1450   75 75  100/ 17/ 21 1022.0    6/ 9

$$




USA.gov is the U.S. government's official web portal to all federal, state and local government web resources and services.